Starlink 30316

operational
NORAD ID: 57673 Int'l Des: 2023-124 Owner: SPXS Country: US Constellation: starlink
LEOCIRCULAR

Starlink 30316について

説明を読み込み中...

リアルタイム位置

3D地球を読み込み中...

次回通過

高度履歴

Altitude vs Time

uPlot chart will show altitude changes over time

軌道要素

1 57673U 23124L 25305.80542952 -.00001035 00000-0 -22841-4 0 9992
2 57673 53.1607 81.0891 0001249 79.6075 280.5066 15.30181028123988
Epoch: Nov 1, 2025 • Age: 50 hours

現在のステータス

高度 478.1 km
速度 7.63 km/s
衛星直下点 -9.79°S, 59.03°E
打ち上げ日 Aug 22, 2023
運用期間 2.2 years
タイプ internet

技術仕様

分類 Payload
質量 730.00 kg
乾燥質量 700.00 kg
総質量 730.00 kg
長さ 0.30 m
直径 4.10 m
スパン 29.00 m
形状 Box + pan
製造者 SPXS
バスタイプ Starlink V2M
フェーズステータス In Orbit
所有者/国 SPXS/US

大規模コンステレーション

Loading constellations...